Home > Time Zones > World Clock > Weather > Russia > Ufa > Past weeks

Flag for Russia Weather past 2 weeks in Ufa, Russia

Now
34 °F

Light snow. Overcast.


Feels Like: 26 °F
Forecast: 24 / 34 °F
Wind: 10 mph from South

Location: Ufa

Current Time: Dec 22, 2014 at 5:23:00 PM

Latest Report: Dec 22, 2014 at 4:30 PM


Visibility: N/A

Pressure: 29.71 "Hg

Humidity: 87%

Dew point: 30 °F

Location of UfaLocation

Historic Weather in Ufa — Graph

°F

Ufa temperature yesterday

Maximum temperature yesterday: 34 °F (at 3:30 PM)
Minimum temperature yesterday: 30 °F (at 12:00 AM)
Average temperature yesterday: 32 °F

Past Weeks' High & Low Weather Summary

 TemperatureHumidityPressure
High34 °F (Dec 14, 12:00 AM)100% (Dec 11, 3:00 AM)30.72 "Hg (Dec 11, 3:00 AM)
Low0 °F (Dec 8, 11:00 PM)42% (Dec 9, 12:00 PM)29.65 "Hg (Dec 21, 12:00 PM)
Average24 °F82%30.28 "Hg
* Reported Dec 7 4:00 PM — Dec 22 4:00 PM, Ufa, Weather by CustomWeather, © 2014

Note: Actual official high and low records may vary slightly from our data, if they occured in-between our weather recording intervals... More about our weather records

Advertising

Ufa weather history for previous 24 hours

 ConditionsComfort  
Time TempWeatherWind HumidityBarometerVisibility
4:00 PM
Dec 22
34 °FOvercast.10 mph87%29.71 "HgN/A
3:30 PM34 °FOvercast.13 mph87%29.71 "HgN/A
3:00 PM34 °FOvercast.13 mph87%29.74 "HgN/A
2:30 PM34 °FOvercast.13 mph87%29.74 "HgN/A
2:00 PM34 °FOvercast.13 mph81%29.74 "HgN/A
1:30 PM32 °FOvercast.13 mph87%29.77 "HgN/A
1:00 PM32 °FPartly sunny.10 mph80%29.77 "HgN/A
12:30 PM32 °FPartly sunny.10 mph87%29.77 "HgN/A
12:00 PM32 °FPartly sunny.6 mph80%29.80 "HgN/A
11:30 AM30 °FPartly cloudy.3 mph80%29.80 "HgN/A
11:00 AM30 °FPartly cloudy.6 mph80%29.80 "HgN/A
10:30 AM30 °FPartly cloudy.8 mph80%29.80 "HgN/A
10:00 AM32 °FPassing clouds.10 mph75%29.83 "HgN/A
9:30 AM32 °FPassing clouds.8 mph80%29.83 "HgN/A
8:30 AM32 °FPassing clouds.8 mph87%29.83 "HgN/A
7:30 AM28 °FPassing clouds.6 mph93%29.83 "HgN/A
7:00 AM27 °FPassing clouds.3 mph93%29.83 "HgN/A
6:30 AM28 °FOvercast.3 mph93%29.83 "HgN/A
6:00 AM30 °FOvercast.6 mph93%29.83 "HgN/A
5:30 AM32 °FOvercast.6 mph87%29.83 "HgN/A
5:00 AM32 °FOvercast.3 mph93%29.83 "HgN/A
4:30 AM32 °FOvercast.3 mph93%29.83 "HgN/A
4:00 AM34 °FOvercast.6 mph87%29.86 "HgN/A
3:30 AM34 °FOvercast.3 mph87%29.83 "HgN/A
2:30 AM34 °FOvercast.8 mph87%29.83 "HgN/A
2:00 AM34 °FOvercast.8 mph87%29.83 "HgN/A
1:30 AM34 °FOvercast.6 mph87%29.83 "HgN/A
1:00 AM34 °FOvercast.6 mph87%29.83 "HgN/A
12:30 AM34 °FOvercast.8 mph93%29.83 "HgN/A
12:00 AM34 °FOvercast.6 mph93%29.80 "HgN/A
11:30 PM
Dec 21
34 °FOvercast.8 mph93%29.80 "HgN/A
11:00 PM34 °FPassing clouds.8 mph93%29.80 "HgN/A
10:30 PM34 °FPassing clouds.8 mph93%29.80 "HgN/A
10:00 PM34 °FPassing clouds.6 mph93%29.77 "HgN/A
9:30 PM34 °FOvercast.6 mph93%29.80 "HgN/A
9:00 PM34 °FOvercast.10 mph93%29.77 "HgN/A
8:30 PM34 °FOvercast.10 mph93%29.77 "HgN/A
8:00 PM34 °FMostly cloudy.13 mph93%29.74 "HgN/A
7:30 PM34 °FMostly cloudy.13 mph93%29.74 "HgN/A
7:00 PM34 °FMostly cloudy.8 mph93%29.74 "HgN/A
6:30 PM34 °FMore clouds than sun.13 mph93%29.71 "HgN/A
6:00 PM34 °FMore clouds than sun.13 mph93%29.71 "HgN/A
5:30 PM34 °FMore clouds than sun.10 mph93%29.71 "HgN/A
5:00 PM34 °FMore clouds than sun.10 mph100%29.68 "HgN/A
Weather by CustomWeather, © 2014

See weather overviewHow to use our weather pages